Darstellungsparameter: Aktuell verwendete Einstellungen:
Skalierung der Graphiken ... ?
xyx+y,   Skalierungsfaktor:      Skalierung: Modus: x, Faktor: 1
Darstellungszeitraum ... ?
Vom - - bis: - -   Zeitraum: 11.10.2010 - 11.10.2010
Min/Max/Avg-Anzeige ... ?
Zeige MMA aktuell
Zeige MMA Monat
Zeige MMA alles
Zeige --A aktuell
Zeige --A Monat
Zeige --A alles
Keine MMA-Anzeige
MMA:
Average (ber die Originaldaten)
MMA-Basis: 11.10.2010 - 11.10.2010
Quicknavigation für Darstellung... ?
Tage:      1T, 2T, 3T, 5T -1T -2T -3T -5T +1T +2T +3T +5T
Wochen: 1W, 2W, 3W -1W -2W -3W +1W +2W +3W
Monate: 1M, 3M, 6M -1M -3M -6M +1M +3M +6M
Jahre:    1J, 3J, 5J, 10J -1J -3J -5J -10J +1J +3J +5J +10J
Nutze für die Darstellung ... ?
Originaldaten oder Mittelwerte auf ...
Stundenbasis Tagesbasis Wochenbasis
Monatsbasis Jahresbasis      Datenbasis: Original-Daten
Darstellen als:
Statistik (Auto) Statistik J:M      Darstellung:
Zur Graphik,    zurück zur Übersicht aller Sensoren.
 
Tabellarische Datenbersicht: ?
 
Sensor: Nr:Datum:Temp:Abs-Feuchte:Windchill:Wind:
Aussen-T/F 1 11-10-2010 00:11:03 10.2 C 4.85 g/m*3 10.2 C 0 km/h
2 11-10-2010 00:23:03 10 C 4.89 g/m*3 10 C 0 km/h
3 11-10-2010 00:35:03 9.9 C 4.95 g/m*3 9.9 C 0 km/h
4 11-10-2010 00:47:03 10 C 4.79 g/m*3 10 C 0 km/h
5 11-10-2010 00:59:03 9.8 C 4.92 g/m*3 9.8 C 0 km/h
6 11-10-2010 01:11:03 9.6 C 4.95 g/m*3 9.6 C 0 km/h
7 11-10-2010 01:23:03 9.5 C 4.92 g/m*3 9.5 C 0 km/h
8 11-10-2010 01:35:03 9.4 C 4.88 g/m*3 9.4 C 0 km/h
9 11-10-2010 01:47:03 9.3 C 4.94 g/m*3 9.3 C 0 km/h
10 11-10-2010 01:59:03 9.4 C 4.88 g/m*3 9.4 C 0 km/h
11 11-10-2010 02:11:03 9.4 C 4.79 g/m*3 9.4 C 0 km/h
12 11-10-2010 02:23:03 9.4 C 4.88 g/m*3 9.4 C 0 km/h
13 11-10-2010 02:35:03 9 C 4.85 g/m*3 9 C 0 km/h
14 11-10-2010 02:47:04 8.9 C 4.91 g/m*3 8.9 C 0 km/h
15 11-10-2010 02:59:04 8.7 C 4.93 g/m*3 8.7 C 0 km/h
16 11-10-2010 03:11:04 8.5 C 4.95 g/m*3 8.5 C 0 km/h
17 11-10-2010 03:23:04 8.3 C 4.97 g/m*3 8.3 C 0 km/h
18 11-10-2010 03:35:04 8.2 C 5.02 g/m*3 8.2 C 0 km/h
19 11-10-2010 03:47:04 8.1 C 4.99 g/m*3 8.1 C 0 km/h
20 11-10-2010 03:59:04 8.1 C 4.99 g/m*3 8.1 C 0 km/h
21 11-10-2010 04:11:04 7.7 C 5.03 g/m*3 7.7 C 0 km/h
22 11-10-2010 04:23:04 7.5 C 5.12 g/m*3 7.5 C 0 km/h
23 11-10-2010 04:35:04 7.5 C 5.12 g/m*3 7.5 C 0 km/h
24 11-10-2010 04:47:04 7.6 C 5.16 g/m*3 7.6 C 0 km/h
25 11-10-2010 04:59:04 7.6 C 5.08 g/m*3 7.6 C 0 km/h
Sensor: Nr:Datum:Temp:Abs-Feuchte:Windchill:Wind:
Aussen-T/F 26 11-10-2010 05:11:04 7.1 C 5.07 g/m*3 7.1 C 0 km/h
27 11-10-2010 05:23:04 7 C 5.27 g/m*3 7 C 0 km/h
28 11-10-2010 05:35:04 6.6 C 5.28 g/m*3 6.6 C 0 km/h
29 11-10-2010 05:47:04 6.3 C 5.26 g/m*3 6.3 C 0 km/h
30 11-10-2010 05:59:04 6.2 C 5.29 g/m*3 6.2 C 0 km/h
31 11-10-2010 06:11:04 6 C 5.23 g/m*3 6 C 0 km/h
32 11-10-2010 06:23:04 5.8 C 5.23 g/m*3 5.8 C 0 km/h
33 11-10-2010 06:35:04 5.7 C 5.34 g/m*3 5.7 C 0 km/h
34 11-10-2010 06:47:04 5.6 C 5.37 g/m*3 5.6 C 0 km/h
35 11-10-2010 06:59:05 5.5 C 5.41 g/m*3 5.5 C 0 km/h
36 11-10-2010 07:11:02 5.4 C 5.37 g/m*3 5.4 C 0 km/h
37 11-10-2010 07:23:02 5.3 C 5.41 g/m*3 5.3 C 0 km/h
38 11-10-2010 07:35:03 5.3 C 5.41 g/m*3 5.3 C 0 km/h
39 11-10-2010 07:47:02 5.1 C 5.34 g/m*3 5.1 C 0 km/h
40 11-10-2010 07:59:02 5 C 5.3 g/m*3 5 C 0 km/h
41 11-10-2010 08:11:02 4.9 C 5.33 g/m*3 4.9 C 0 km/h
42 11-10-2010 08:23:02 4.9 C 5.4 g/m*3 4.9 C 0 km/h
43 11-10-2010 08:35:02 5 C 5.37 g/m*3 5 C 0 km/h
44 11-10-2010 08:47:02 5 C 5.44 g/m*3 5 C 0 km/h
45 11-10-2010 08:59:02 5 C 5.44 g/m*3 5 C 0 km/h
46 11-10-2010 09:11:02 5.3 C 5.61 g/m*3 5.3 C 0 km/h
47 11-10-2010 09:23:02 5.4 C 5.65 g/m*3 5.4 C 0 km/h
48 11-10-2010 09:35:02 5.6 C 5.73 g/m*3 5.6 C 0 km/h
49 11-10-2010 09:47:01 5.8 C 5.73 g/m*3 5.8 C 0 km/h
50 11-10-2010 09:59:01 5.9 C 5.77 g/m*3 5.9 C 0 km/h
Sensor: Nr:Datum:Temp:Abs-Feuchte:Windchill:Wind:
Aussen-T/F 51 11-10-2010 10:11:01 6.1 C 5.77 g/m*3 6.1 C 0 km/h
52 11-10-2010 10:23:01 6.5 C 6 g/m*3 6.5 C 0 km/h
53 11-10-2010 10:35:01 7.1 C 6.16 g/m*3 7.1 C 0 km/h
54 11-10-2010 10:47:02 7.7 C 6.32 g/m*3 7.7 C 0 km/h
55 11-10-2010 10:59:02 8.2 C 6.28 g/m*3 8.2 C 0 km/h
56 11-10-2010 11:11:02 8.7 C 6.31 g/m*3 8.7 C 0 km/h
57 11-10-2010 11:23:03 9 C 6.26 g/m*3 9 C 0 km/h
58 11-10-2010 11:35:02 9.4 C 6.33 g/m*3 9.4 C 0 km/h
59 11-10-2010 11:47:01 9.9 C 6.44 g/m*3 9.9 C 0 km/h
60 11-10-2010 11:59:01 10.3 C 6.42 g/m*3 10.3 C 0 km/h
61 11-10-2010 12:11:02 10.7 C 6.38 g/m*3 10.7 C 0 km/h
62 11-10-2010 12:23:01 11.3 C 6.43 g/m*3 11.3 C 0 km/h
63 11-10-2010 12:35:01 11.6 C 6.44 g/m*3 11.6 C 0 km/h
64 11-10-2010 12:47:01 12 C 6.39 g/m*3 12 C 0 km/h
65 11-10-2010 12:59:01 12.5 C 6.6 g/m*3 12.5 C 0 km/h
66 11-10-2010 13:11:01 13.8 C 6.2 g/m*3 13.8 C 0 km/h
67 11-10-2010 13:23:02 14.5 C 6.09 g/m*3 14.5 C 0 km/h
68 11-10-2010 13:35:01 14.9 C 5.99 g/m*3 14.9 C 0 km/h
69 11-10-2010 13:47:02 15.4 C 5.65 g/m*3 15.4 C 0 km/h
70 11-10-2010 13:59:02 16 C 5.45 g/m*3 16 C 0 km/h
71 11-10-2010 14:11:02 16.7 C 4.97 g/m*3 16.7 C 0 km/h
72 11-10-2010 14:23:02 17.1 C 5.82 g/m*3 17.1 C 0 km/h
73 11-10-2010 14:35:01 17.4 C 5.48 g/m*3 17.4 C 0 km/h
74 11-10-2010 14:47:01 17.9 C 5.5 g/m*3 17.9 C 0 km/h
75 11-10-2010 14:59:02 18.3 C 5.47 g/m*3 18.3 C 0 km/h
Sensor: Nr:Datum:Temp:Abs-Feuchte:Windchill:Wind:
Aussen-T/F 76 11-10-2010 15:11:01 18.8 C 5.31 g/m*3 18.8 C 0 km/h
77 11-10-2010 15:23:01 19.4 C 5.51 g/m*3 19.4 C 0 km/h
78 11-10-2010 15:35:01 19.8 C 5.12 g/m*3 19.8 C 0 km/h
79 11-10-2010 15:47:01 20.3 C 4.57 g/m*3 20.3 C 0 km/h
80 11-10-2010 15:59:01 20.6 C 4.65 g/m*3 20.6 C 0 km/h
81 11-10-2010 16:11:02 20.8 C 4.71 g/m*3 20.8 C 0 km/h
82 11-10-2010 16:23:01 21.1 C 4.97 g/m*3 21.1 C 0 km/h
83 11-10-2010 16:35:01 21.2 C 4.63 g/m*3 21.2 C 0 km/h
84 11-10-2010 16:47:01 21 C 4.58 g/m*3 21 C 0 km/h
85 11-10-2010 16:59:01 20.7 C 4.14 g/m*3 20.7 C 0 km/h
86 11-10-2010 17:11:02 20.5 C 3.74 g/m*3 20.5 C 0 km/h
87 11-10-2010 17:23:01 20 C 3.63 g/m*3 20 C 0 km/h
88 11-10-2010 17:35:01 19.5 C 3.36 g/m*3 19.5 C 0 km/h
89 11-10-2010 17:47:01 19.1 C 3.44 g/m*3 19.1 C 0 km/h
90 11-10-2010 17:59:01 18.7 C 3.84 g/m*3 18.7 C 0 km/h
91 11-10-2010 18:11:01 18 C 4.45 g/m*3 18 C 0 km/h
92 11-10-2010 18:23:02 16.9 C 4.31 g/m*3 16.9 C 0 km/h
93 11-10-2010 18:35:01 15.7 C 3.88 g/m*3 15.7 C 0 km/h
94 11-10-2010 18:47:03 15.1 C 3.61 g/m*3 15.1 C 0 km/h
95 11-10-2010 18:59:03 14.9 C 3.7 g/m*3 14.9 C 0 km/h
96 11-10-2010 19:11:02 14.4 C 3.71 g/m*3 14.4 C 0 km/h
97 11-10-2010 19:23:02 13.7 C 4.14 g/m*3 13.7 C 0 km/h
98 11-10-2010 19:35:02 13.2 C 4.48 g/m*3 13.2 C 0 km/h
99 11-10-2010 19:47:02 12.5 C 4.51 g/m*3 12.5 C 0 km/h
100 11-10-2010 19:59:03 12.1 C 4.72 g/m*3 12.1 C 0 km/h
Sensor: Nr:Datum:Temp:Abs-Feuchte:Windchill:Wind:
Aussen-T/F 101 11-10-2010 20:11:02 11.9 C 4.77 g/m*3 11.9 C 0 km/h
102 11-10-2010 20:23:02 11.8 C 4.84 g/m*3 11.8 C 0 km/h
103 11-10-2010 20:35:02 11.3 C 4.79 g/m*3 11.3 C 0 km/h
104 11-10-2010 20:47:01 11 C 4.7 g/m*3 11 C 0 km/h
105 11-10-2010 20:59:01 10.6 C 4.98 g/m*3 10.6 C 0 km/h
106 11-10-2010 21:11:02 10.3 C 5.08 g/m*3 10.3 C 0 km/h
107 11-10-2010 21:23:01 10.1 C 4.82 g/m*3 10.1 C 0 km/h
108 11-10-2010 21:35:02 9.9 C 4.95 g/m*3 9.9 C 0 km/h
109 11-10-2010 21:48:03 9.8 C 5.01 g/m*3 9.8 C 0 km/h
110 11-10-2010 22:00:03 9.6 C 4.95 g/m*3 9.6 C 0 km/h
111 11-10-2010 22:12:03 9.4 C 4.88 g/m*3 9.4 C 0 km/h
112 11-10-2010 22:24:03 9.3 C 4.76 g/m*3 9.3 C 0 km/h
113 11-10-2010 22:36:03 8.9 C 4.82 g/m*3 8.9 C 0 km/h
114 11-10-2010 22:48:03 8.8 C 4.79 g/m*3 8.8 C 0 km/h
115 11-10-2010 23:00:03 8.7 C 5.02 g/m*3 8.7 C 0 km/h
116 11-10-2010 23:12:04 8.4 C 4.84 g/m*3 8.4 C 0 km/h
117 11-10-2010 23:24:04 8.2 C 4.86 g/m*3 8.2 C 0 km/h
118 11-10-2010 23:36:04 8.1 C 4.83 g/m*3 8.1 C 0 km/h
119 11-10-2010 23:48:04 7.8 C 4.82 g/m*3 7.8 C 0 km/h

Legende:
   Min
   Max


Maximal/Minimal-Werte vom 11.10.2010 - 11.10.2010

Sensor Min Max Avg
Temp
(Aussen-T/F)
4.9 °C
11-10-2010  08:11:02
21.2 °C
11-10-2010  16:35:01
10.9 °C
Abs-Feuchte
(Aussen-T/F)
3.36 g/m*3
11-10-2010  17:35:01
6.6 g/m*3
11-10-2010  12:59:01
5.08 g/m*3
Windchill
(Aussen-T/F)
4.9 C
11-10-2010  08:11:02
21.2 C
11-10-2010  16:35:01
10.81 C

Die Daten stammen von einer Davis Vantage Pro 2 Wetter-Station und werden unter Linux mit der Software wview2wettercgi und aufbereitet. Alle Angaben erfolgen ohne Gewähr für ihre Vollständigkeit oder Richtigkeit.
Kontakt: Rainer Krienke krienke@uni-koblenz.de . Meine Webseiten an der Uni Koblenz oder privat.
Version: $Revision: 0.78 $